Regional Weather Roundup
Issued by NWS

Home | Current Version | Previous Version | Graphics & Text | Print | Product List | Glossary On
Versions: 1 2 3 4 5 6 7 8 9 10 11 12 13 14 15 16 17 18 19 20 21 22 23 24 25 26 27 28 29 30 31 32 33 34 35 36 37 38 39 40 41 42 43 44 45 46 47 48 49 50
241
ASUS43 KDMX 290203
RWRIA

WEATHER ROUNDUP FOR IOWA
NATIONAL WEATHER SERVICE DES MOINES IA
900 PM CDT SAT MAY 28 2016

NOTE: "FAIR" INDICATES FEW OR NO CLOUDS BELOW 12,000 FEET WITH NO
SIGNIFICANT WEATHER AND/OR OBSTRUCTIONS TO VISIBILITY.

* - THESE STATIONS ARE NOT NWS STATIONS...THUS NOT UNDER NWS
QUALITY CONTROL.  THEY ALSO DO NOT REPORT WEATHER SUCH
AS PRECIPITATION OR FOG.

IAZ001>003-012>014-020>022-031>034-043>046-290300-
   NORTHWEST IOWA

CITY           SKY/WX    TMP DP  RH WIND       PRES   REMARKS
CARROLL *      CLOUDY    64  59  82 W15G23    29.84R
CHEROKEE *     MOCLDY    62  61  98 NW3       29.84R
DENISON *      CLOUDY    64  59  82 W12G17    29.85R
LE MARS *      CLOUDY    64  61  88 N10G17    29.87R
ORANGE CITY *  HVY RAIN  63  61  94 NE6G20    29.86R
SHELDON *      LGT RAIN  63  61  94 CALM      29.84R
SIOUX CITY     CLOUDY    64  58  80 NW13      29.88R
SPENCER        LGT RAIN  61  59  93 NE6       29.83S
STORM LAKE *   MOCLDY    63  59  88 N16       29.83R
$$

IAZ055>058-069>071-079>083-090>094-290300-
   SOUTHWEST IOWA

CITY           SKY/WX    TMP DP  RH WIND       PRES   REMARKS
ATLANTIC *     CLEAR     66  57  72 SW7       29.88R
AUDUBON *      CLEAR     64  57  77 CALM      29.88R
CLARINDA *       N/A     68  61  77 MISG      29.92R
COUNCIL BLFS * CLEAR     68  55  64 W9G15     29.90R
CRESTON *      CLEAR     66  59  77 SW8       29.91R
HARLAN  *      PTCLDY    66  55  68 W13       29.92R
LAMONI         CLEAR     66  59  78 SW9       29.91R
RED OAK *      PTCLDY    68  57  68 W6        29.90R
SHENANDOAH *   PTCLDY    70  63  78 W6        29.91R
$$

IAZ047>049-059>061-072>074-084-290300-
   CENTRAL IOWA

CITY           SKY/WX    TMP DP  RH WIND       PRES   REMARKS
AMES           CLOUDY    66  58  75 SW12      29.83R
ANKENY *       CLEAR     68  59  73 SW8       29.85R
BOONE *        CLOUDY    66  57  72 SW16G25   29.82S
CHARITON *     PTCLDY    68  59  73 SW7       29.89R
DES MOINES     PTCLDY    69  57  65 SW12      29.85S
GRINNELL*      MOCLDY    68  61  77 S8        29.86S
KNOXVILLE *    PTCLDY    70  59  68 SW13      29.86R
MARSHALLTOWN   CLOUDY    67  59  75 SW9       29.83R
NEWTON *       CLOUDY    66  63  88 W18G25    29.85R HAZE
PELLA *        PTCLDY    68  60  75 S8        29.87S
PERRY *        RAIN      66  61  82 W14G22    29.86R
$$

IAZ004>006-015-016-023>025-035-036-290300-
   NORTH CENTRAL IOWA

CITY           SKY/WX    TMP DP  RH WIND       PRES   REMARKS
ALGONA *       RAIN      63  61  94 N5        29.82R
CLARION *      PTCLDY    64  61  88 SW15      29.80S
ESTHERVILLE    LGT RAIN  62  61  96 N5        29.83R
FORT DODGE *   CLOUDY    64  57  77 SW8       29.81R
MASON CITY     MOCLDY    63  62  97 SE5       29.82R
FOREST CITY *  CLOUDY    61  61 100 NE3       29.81S
WEBSTER CITY * CLOUDY    64  61  88 SW17G25   29.79S
IOWA FALLS *   CLOUDY    66  61  82 SW9       29.84R
$$

IAZ007>011-017>019-026>030-037>042-050>054-066-290300-
   NORTHEAST IOWA

CITY           SKY/WX    TMP DP  RH WIND       PRES   REMARKS
CEDAR RAPIDS   CLEAR     68  61  78 SW9       29.85R
CHARLES CITY * MOCLDY    64  63  94 S8        29.82S
CLINTON *      CLOUDY    72  62  71 W15       29.87R
DECORAH *      MOCLDY    64  61  88 VRB6G16   29.82R
DUBUQUE        CLOUDY    68  61  78 SW8       29.86R
MONTICELLO *   CLEAR     68  63  83 SW7       29.85S
OELWEIN *      CLOUDY    68  63  83 SW12      29.84S
WATERLOO       PTCLDY    65  61  87 S6        29.82R
$$

IAZ064-065-067-068-078-290300-
   EAST CENTRAL IOWA

CITY           SKY/WX    TMP DP  RH WIND       PRES   REMARKS
DAVENPORT      MOCLDY    72  60  66 SW14      29.88R
IOWA CITY      CLEAR     70  60  70 SW6       29.88R
MT. PLEASANT * CLOUDY    72  64  78 SW5       29.90R
MUSCATINE *    PTCLDY    72  59  64 SW10      29.89R
QUAD CITIES    CLOUDY    75  58  55 W17       29.87R
$$

IAZ062-063-075>077-085>089-095>099-290300-
   SOUTHEAST IOWA

CITY           SKY/WX    TMP DP  RH WIND       PRES   REMARKS
BURLINGTON     MOCLDY    72  62  71 W5        29.90R
FAIRFIELD *      N/A    N/A N/A N/A MISG        N/A
FORT MADISON * PTCLDY    72  61  68 SW6       29.92R
KEOKUK *       PTCLDY    72  61  68 SW8       29.91R
OSKALOOSA *      N/A     68  61  77 SW9       29.88S
OTTUMWA        CLEAR     68  60  75 SW9       29.88R
WASHINGTON *   CLEAR     70 -38   1 SW10      29.90R
$$

ABBREVIATIONS USED IN REMARKS
   TC - TEMPERATURES IN CELSIUS
  WCI - WIND CHILL INDEX
   HX - HEAT INDEX
  VSB - VISIBILITY
$$





USA.gov is the U.S. government's official web portal to all federal, state and local government web resources and services.